TimeEDT,TemperatureF,Dew PointF,Humidity,Sea Level PressureIn,VisibilityMPH,Wind Direction,Wind SpeedMPH,Gust SpeedMPH,PrecipitationIn,Events,Conditions,WindDirDegrees,DateUTC
12:54 AM,55.0,52.0,89,30.06,10.0,Calm,Calm,-,N/A,,Clear,0,2013-10-12 04:54:00
1:54 AM,52.0,50.0,93,30.06,10.0,Calm,Calm,-,N/A,,Clear,0,2013-10-12 05:54:00
2:54 AM,51.1,50.0,96,30.06,10.0,Calm,Calm,-,N/A,,Clear,0,2013-10-12 06:54:00
3:54 AM,51.1,50.0,96,30.06,8.0,Calm,Calm,-,N/A,,Clear,0,2013-10-12 07:54:00
4:54 AM,51.1,48.9,92,30.06,4.0,Calm,Calm,-,N/A,,Clear,0,2013-10-12 08:54:00
5:22 AM,51.8,48.2,88,30.08,1.5,Calm,Calm,-,N/A,,Clear,0,2013-10-12 09:22:00
5:25 AM,50.0,48.2,94,30.08,0.8,Calm,Calm,-,N/A,,Mist,0,2013-10-12 09:25:00
5:37 AM,50.0,48.2,94,30.08,1.0,Calm,Calm,-,N/A,,Clear,0,2013-10-12 09:37:00
5:40 AM,48.2,48.2,100,30.08,3.0,Calm,Calm,-,N/A,,Clear,0,2013-10-12 09:40:00
5:54 AM,51.1,48.9,92,30.07,7.0,Calm,Calm,-,N/A,,Clear,0,2013-10-12 09:54:00
6:54 AM,50.0,48.9,96,30.09,1.5,Calm,Calm,-,N/A,,Clear,0,2013-10-12 10:54:00
7:05 AM,51.8,50.0,94,30.10,3.0,Calm,Calm,-,N/A,,Clear,0,2013-10-12 11:05:00
7:20 AM,50.0,48.2,94,30.09,1.5,Calm,Calm,-,N/A,,Clear,0,2013-10-12 11:20:00
7:23 AM,50.0,48.2,94,30.09,0.8,Calm,Calm,-,N/A,,Mist,0,2013-10-12 11:23:00
7:34 AM,50.0,48.2,94,30.10,1.2,Calm,Calm,-,N/A,,Partly Cloudy,0,2013-10-12 11:34:00
7:47 AM,48.2,46.4,93,30.10,3.0,Calm,Calm,-,N/A,,Partly Cloudy,0,2013-10-12 11:47:00
7:54 AM,48.9,48.0,97,30.10,4.0,Calm,Calm,-,N/A,,Clear,0,2013-10-12 11:54:00
8:54 AM,57.9,54.0,87,30.11,6.0,Calm,Calm,-,N/A,,Clear,0,2013-10-12 12:54:00
9:54 AM,63.0,53.1,70,30.11,10.0,East,3.5,-,N/A,,Clear,80,2013-10-12 13:54:00
10:54 AM,66.0,55.0,68,30.10,10.0,Calm,Calm,-,N/A,,Clear,0,2013-10-12 14:54:00
11:54 AM,66.9,55.0,66,30.09,10.0,Calm,Calm,-,N/A,,Partly Cloudy,0,2013-10-12 15:54:00
12:20 PM,69.8,55.4,60,30.10,10.0,Variable,3.5,-,N/A,,Mostly Cloudy,0,2013-10-12 16:20:00
12:54 PM,71.1,57.0,61,30.09,10.0,Calm,Calm,-,N/A,,Overcast,0,2013-10-12 16:54:00
1:54 PM,70.0,57.0,63,30.08,10.0,Calm,Calm,-,N/A,,Overcast,0,2013-10-12 17:54:00
2:21 PM,69.8,55.4,60,30.08,10.0,Calm,Calm,-,N/A,,Overcast,0,2013-10-12 18:21:00
2:54 PM,71.1,57.0,61,30.08,10.0,Calm,Calm,-,N/A,,Overcast,0,2013-10-12 18:54:00
3:54 PM,72.0,57.0,59,30.08,10.0,Calm,Calm,-,N/A,,Overcast,0,2013-10-12 19:54:00
4:54 PM,72.0,57.0,59,30.08,10.0,Calm,Calm,-,N/A,,Partly Cloudy,0,2013-10-12 20:54:00
5:54 PM,71.1,57.0,61,30.09,10.0,SSE,4.6,-,N/A,,Clear,160,2013-10-12 21:54:00
6:54 PM,66.0,57.9,75,30.09,10.0,Calm,Calm,-,N/A,,Partly Cloudy,0,2013-10-12 22:54:00
7:54 PM,61.0,57.0,87,30.10,10.0,Calm,Calm,-,0.00,,Clear,0,2013-10-12 23:54:00
8:54 PM,59.0,55.9,90,30.11,10.0,West,3.5,-,N/A,,Clear,280,2013-10-13 00:54:00
9:54 PM,57.9,55.0,90,30.12,9.0,Calm,Calm,-,N/A,,Clear,0,2013-10-13 01:54:00
10:43 PM,57.2,53.6,88,30.13,2.5,Calm,Calm,-,N/A,,Clear,0,2013-10-13 02:43:00
10:52 PM,57.2,55.4,94,30.13,5.0,Calm,Calm,-,N/A,,Clear,0,2013-10-13 02:52:00
10:54 PM,57.0,55.0,93,30.13,5.0,Calm,Calm,-,N/A,,Clear,0,2013-10-13 02:54:00
11:54 PM,57.0,55.0,93,30.14,5.0,Calm,Calm,-,N/A,,Partly Cloudy,0,2013-10-13 03:54:00